Lapse_Rate
7.3 6.5 6.5 6.5 6.5 6.5 6.5 6.5 6.5 6.5 6.5 6.5 6.5 6.5 6.5 6.9 7.1 7.0 7.3 7.6 8.0 8.2 8.8 9.1 9.3 9.4 9.5 9.5 9.3 9.3 9.1 5.2 0.8 4.1 8.1 7.4 7.1 6.1 6.4 6.4 5.3 4.9 7.4 6.3
6.5 6.5 6.5 6.5 6.5 6.5 6.5 6.5 6.5 6.5 6.5 6.5 6.5 6.5 6.5 6.5 6.7 7.1 7.2 7.5 7.8 8.2 8.4 8.7 9.0 9.2 9.2 9.2 9.1 9.1 9.2 6.0 4.5 4.7 7.9 6.7 5.6 6.5 8.4 7.3 5.2 7.3 8.8 4.1
6.5 6.5 6.5 6.5 6.5 6.5 6.5 6.5 6.5 6.5 6.5 6.5 6.5 6.5 6.5 6.5 6.9 7.3 7.6 7.8 8.0 8.0 8.2 8.6 8.8 8.9 9.2 9.0 9.1 9.2 8.8 7.6 6.4 7.2 5.9 8.2 8.6 6.3 7.5 7.2 7.7 9.3 6.4 4.2
6.5 6.7 6.5 6.5 6.5 6.5 6.5 6.5 6.5 6.5 6.5 6.5 6.5 6.5 6.5 6.5 6.5 6.5 7.2 7.6 7.9 8.1 8.5 8.7 8.9 9.0 9.2 9.1 9.3 9.3 9.2 8.9 7.7 8.4 8.5 8.3 8.9 8.0 7.6 9.4 8.5 5.7 7.5 7.0
6.5 6.5 6.5 6.5 6.5 6.5 6.5 6.5 6.5 6.5 6.5 6.5 6.5 6.5 6.5 6.5 6.5 6.5 6.8 7.3 7.8 8.2 8.4 8.5 8.7 8.9 9.2 9.3 9.3 9.4 9.3 9.1 9.1 9.1 8.3 7.9 8.0 9.3 9.2 9.2 8.0 6.7 7.4 9.0
6.5 7.2 6.6 6.5 6.5 6.5 6.5 6.5 6.5 6.5 6.5 6.5 6.5 6.5 6.5 6.5 6.5 6.5 6.8 7.3 7.7 8.0 8.3 8.5 8.9 9.0 9.1 9.4 9.3 9.4 9.2 9.1 9.1 9.2 8.1 8.7 8.9 8.7 9.1 9.1 8.8 9.1 7.5 8.7
6.5 6.5 6.5 6.9 6.5 6.5 6.5 6.5 6.5 6.5 6.5 6.5 6.5 6.5 6.5 6.5 6.5 6.5 6.6 7.3 7.7 8.0 8.2 8.3 8.4 8.8 8.8 9.0 9.2 9.2 8.9 8.9 9.0 8.3 9.1 8.9 8.8 8.8 8.9 9.1 9.1 9.0 7.0 7.4
6.5 6.5 6.5 6.5 6.5 6.5 6.5 6.5 6.5 6.5 6.5 6.5 6.5 6.5 6.5 6.5 7.0 7.3 7.5 7.7 7.9 8.0 8.3 8.3 8.4 8.6 8.8 8.9 9.0 9.1 8.9 8.7 9.2 9.2 9.0 8.8 9.0 8.8 9.3 9.0 9.2 9.3 9.3 9.3
6.5 6.5 6.5 6.5 6.5 6.5 6.5 6.5 6.5 6.5 6.5 6.5 6.5 6.5 6.5 6.5 6.5 6.9 7.1 7.5 7.6 8.0 8.3 8.4 8.6 8.7 8.8 8.9 8.9 9.0 9.0 8.9 9.0 9.2 9.1 9.1 8.8 9.0 8.6 8.6 9.0 9.4 8.7 9.3
6.5 6.5 6.5 6.5 6.7 6.6 6.5 6.5 6.5 6.5 6.5 6.5 6.5 6.5 6.5 6.5 6.5 6.5 6.7 7.2 7.6 8.0 8.2 8.5 8.5 8.7 8.9 9.1 9.2 9.2 9.2 9.0 9.2 9.3 9.3 9.3 7.7 9.1 9.2 9.0 8.3 8.8 9.4 9.4
6.5 6.5 6.5 6.5 6.5 6.5 6.5 6.5 6.5 6.5 6.5 6.5 6.5 6.5 6.5 6.5 6.5 6.5 6.8 7.4 7.6 7.9 8.1 8.4 8.6 8.8 8.9 9.1 9.1 9.2 9.2 9.2 9.2 9.3 9.2 8.0 9.2 9.4 9.3 9.3 9.0 8.6 9.3 8.4
6.5 6.5 6.5 6.5 6.5 6.5 6.5 6.5 6.5 6.5 6.5 6.5 6.5 6.5 6.5 6.5 6.6 6.9 7.1 7.4 7.8 8.1 8.3 8.4 8.7 8.7 8.8 8.8 8.9 9.0 9.1 9.1 9.3 9.2 9.1 9.1 7.6 8.5 9.0 9.1 9.2 7.6 6.9 6.9
6.5 6.5 6.5 6.5 6.5 6.5 6.5 6.5 6.5 6.5 6.5 6.5 6.5 6.5 6.5 6.7 6.7 7.1 7.2 7.5 7.6 7.9 8.1 8.4 8.6 8.6 8.6 8.8 8.8 9.0 9.1 9.1 9.3 9.2 9.3 9.2 9.1 8.2 8.2 9.0 8.6 6.2 6.7 6.7
6.4 6.5 6.5 6.5 6.5 6.5 6.5 6.5 6.5 6.5 6.5 6.5 6.5 6.5 6.5 6.5 6.5 6.9 7.2 7.6 7.8 7.7 8.0 8.3 8.4 8.5 8.7 8.7 8.8 8.9 9.0 9.2 9.3 9.2 8.9 8.0 9.1 8.8 8.5 8.3 8.4 8.4 6.2 6.5
6.5 6.5 6.5 6.5 6.5 6.5 6.5 6.5 6.5 6.5 6.5 6.5 6.5 6.5 6.5 6.5 6.5 7.0 7.4 7.6 7.6 7.7 8.0 8.2 8.3 8.5 8.6 8.7 8.8 8.9 9.1 9.1 9.3 9.1 8.9 9.0 9.1 9.1 8.8 7.9 7.7 9.0 7.1 5.2
6.5 6.5 6.5 6.5 6.5 6.5 6.5 6.5 6.5 6.5 6.5 6.5 6.5 6.5 6.5 7.1 7.3 7.2 7.3 7.5 7.5 7.7 8.0 8.2 8.4 8.5 8.6 8.7 8.8 8.9 9.0 9.1 9.2 9.0 9.0 9.1 9.1 9.1 9.2 9.1 8.6 6.0 1.8 1.9
6.5 6.5 6.5 6.5 6.5 6.5 6.5 6.5 6.5 6.5 6.5 6.5 6.5 6.5 6.5 6.5 6.7 7.0 7.3 7.5 7.6 7.8 8.1 8.2 8.4 8.6 8.7 8.9 8.9 8.8 9.0 9.2 9.0 9.0 9.0 9.1 9.1 9.0 9.1 9.1 9.1 7.5 3.5 2.0
6.5 6.5 6.5 6.5 6.5 6.5 6.5 6.5 6.5 6.5 6.5 6.5 6.5 6.5 6.7 6.9 7.4 7.7 8.0 7.8 7.8 8.0 8.1 8.3 8.7 8.8 9.1 9.3 9.3 9.0 9.2 9.0 8.8 8.8 8.9 9.0 9.0 8.9 8.9 9.0 9.0 9.0 8.1 6.2
6.6 6.5 6.5 6.5 6.5 6.5 6.5 6.5 6.5 6.5 6.5 6.5 6.5 6.5 7.0 7.4 7.6 7.5 8.1 8.2 8.2 8.4 8.6 8.8 9.0 9.1 9.0 9.1 9.2 9.0 9.0 9.0 8.9 8.8 8.9 9.0 9.0 8.8 8.8 8.6 8.7 8.8 8.7 8.0
6.5 6.5 6.5 6.5 6.5 6.5 6.5 6.5 7.3 6.8 6.5 6.8 7.0 6.8 6.9 7.3 6.5 6.5 8.1 8.5 8.6 8.8 8.9 9.0 9.1 9.2 9.1 9.0 9.2 8.9 8.8 8.8 8.7 8.8 8.8 8.9 8.9 8.9 8.8 8.5 8.3 8.2 8.6 8.0
6.5 6.5 6.5 6.5 6.5 6.5 6.5 6.9 7.4 6.5 6.5 7.2 7.4 7.3 7.3 6.6 7.4 8.1 8.6 8.6 8.8 8.9 8.9 9.1 9.1 9.0 9.0 9.2 9.2 8.8 8.8 8.7 9.0 9.2 9.2 9.1 9.1 9.0 9.1 8.7 8.5 8.2 7.8 8.1
6.5 6.5 6.5 6.5 6.5 6.5 7.2 6.8 6.5 6.7 7.5 7.6 7.7 7.8 7.7 7.9 8.1 8.3 8.5 8.4 8.6 8.7 8.9 9.1 9.0 8.9 9.2 9.2 9.1 8.8 8.8 9.1 9.1 9.2 9.1 9.2 9.2 9.3 9.3 8.8 8.8 8.2 8.6 8.6
6.5 6.5 6.5 6.5 6.5 6.9 7.5 7.2 7.8 8.1 7.6 7.7 7.8 8.2 8.2 8.1 8.2 8.4 8.4 8.4 8.6 8.7 8.8 9.1 9.0 8.8 9.0 9.1 9.0 8.1 8.5 9.0 9.0 9.0 9.0 9.0 9.1 9.2 9.3 9.2 9.1 9.0 8.7 8.9
6.5 7.0 6.5 6.5 6.6 6.8 7.4 7.9 8.1 8.2 8.1 8.3 8.4 8.4 8.5 8.2 8.4 8.4 8.5 8.6 8.6 8.8 8.7 8.9 8.8 8.2 7.5 7.8 7.2 7.6 7.4 8.4 8.8 8.2 8.3 9.1 9.1 8.8 9.2 9.3 9.5 9.4 9.1 9.4
6.8 6.7 6.5 6.5 6.7 7.2 7.5 7.9 8.1 8.3 8.5 8.5 8.7 8.6 8.5 8.5 8.4 8.5 8.5 8.4 8.5 8.5 8.2 7.9 7.8 7.9 7.8 8.1 7.8 8.2 7.6 7.5 7.9 8.2 8.7 9.0 9.2 8.5 8.5 9.2 9.5 9.8 8.9 8.8
7.1 6.5 6.5 6.5 7.1 7.1 7.3 8.1 8.4 8.2 8.2 8.5 8.4 8.4 8.7 8.6 8.4 8.0 7.7 7.7 7.9 7.8 8.9 8.7 8.7 8.6 8.7 8.5 8.5 8.6 8.9 8.4 7.3 8.5 8.8 9.0 9.3 8.3 9.1 8.5 8.5 4.4 3.6 2.9
Wind_Speed
13 12 13 9 9 8 5 9 9 4 3 5 11 10 8 7 3 7 9 12 17 16 15 16 16 15 15 14 15 13 14 9 3 3 8 6 7 7 8 8 12 13 11 7
11 13 5 5 4 9 9 8 6 3 3 8 9 8 5 3 2 3 6 11 15 16 16 16 17 14 14 15 15 15 14 14 9 8 10 6 6 10 9 8 11 14 13 10
13 8 9 5 11 9 15 2 10 10 10 14 8 9 8 8 4 6 5 10 13 15 17 17 18 17 16 14 14 16 15 16 15 15 8 6 5 6 6 5 8 12 12 17
17 16 2 9 11 10 14 10 8 10 13 4 2 3 9 10 12 10 11 12 13 15 16 17 18 18 16 15 12 15 15 15 14 15 12 10 8 7 7 7 5 5 14 14
11 12 9 12 14 4 12 7 8 9 12 13 9 5 7 15 11 8 7 3 6 14 16 17 16 17 17 14 12 14 14 15 13 13 12 9 10 7 6 8 9 7 8 11
17 3 10 14 10 5 10 10 15 11 11 9 5 6 3 7 9 6 3 2 2 6 7 13 15 14 15 16 13 12 13 12 12 11 12 11 9 9 6 7 6 8 8 10
16 16 12 14 15 14 10 17 9 9 7 5 7 8 10 9 9 9 5 7 6 1 4 4 9 13 13 15 17 14 13 10 10 9 10 11 11 9 8 7 8 9 9 5
9 16 19 19 13 19 14 15 8 5 6 8 5 4 4 6 5 7 6 11 7 8 7 6 3 6 11 11 10 10 11 10 10 10 11 9 11 8 9 10 9 9 8 7
6 5 4 3 10 12 9 8 10 11 7 6 2 6 7 8 5 7 6 13 8 10 11 10 7 1 2 6 7 6 8 7 8 9 8 10 9 11 9 7 10 9 8 7
2 4 8 9 7 10 15 10 7 5 2 8 6 4 9 7 5 7 6 9 9 8 8 7 6 5 3 2 5 5 5 7 8 8 9 8 5 12 10 12 10 10 8 9
13 10 8 7 10 11 9 12 9 8 8 8 9 7 7 5 7 4 6 9 4 9 6 5 6 5 5 5 4 0 3 5 7 9 9 9 9 11 12 12 11 11 9 9
13 9 10 14 7 5 12 14 11 9 6 9 7 5 10 8 7 5 5 3 8 7 5 3 6 6 6 4 5 5 6 3 7 8 9 15 12 9 9 12 12 7 7 8
3 9 13 12 14 12 10 15 11 15 12 12 9 4 7 7 2 6 8 8 2 1 2 5 7 4 2 5 4 5 3 6 7 7 10 10 6 8 11 12 11 10 9 11
4 15 18 12 3 12 8 9 9 13 12 14 14 18 4 4 4 6 7 10 10 4 5 8 1 5 4 4 3 3 6 7 7 3 1 4 3 2 7 7 8 9 9 10
8 13 16 13 9 6 15 16 14 13 14 15 18 18 14 10 9 7 6 7 5 2 4 3 6 4 2 2 2 4 6 7 8 6 1 1 3 5 6 7 8 7 7 7
9 12 11 14 16 19 16 16 17 17 18 17 16 15 8 10 4 3 2 5 1 3 1 1 1 2 2 0 1 3 5 6 6 6 4 4 5 6 6 6 7 7 3 7
7 12 13 16 14 19 15 15 12 14 11 11 14 5 6 1 1 2 1 2 2 2 3 4 4 4 3 6 5 4 3 6 6 6 6 6 6 6 6 7 6 4 8 8
11 12 10 13 15 18 13 6 4 8 10 12 10 9 7 8 6 5 4 4 5 5 5 5 7 8 9 9 10 8 8 6 8 8 8 8 7 8 8 7 8 7 5 9
13 10 12 12 14 15 13 4 4 8 8 8 4 4 2 4 8 13 8 2 6 7 8 10 11 11 11 13 13 12 12 11 12 12 11 10 9 9 9 9 9 8 8 7
7 6 10 11 12 12 12 9 6 4 9 10 6 6 6 8 9 2 7 8 11 14 14 15 17 17 17 15 16 14 13 12 12 12 13 11 11 10 11 10 10 10 9 10
5 6 10 9 9 3 9 6 5 8 5 7 7 8 9 10 11 15 18 18 17 16 17 17 17 16 17 17 16 16 14 14 13 13 13 13 12 12 11 12 11 10 12 11
7 6 7 6 9 7 10 5 6 6 6 9 11 13 15 16 17 18 19 19 18 19 19 19 18 18 18 17 15 16 16 14 13 13 14 14 13 12 13 13 13 14 13 12
4 4 6 7 5 3 4 5 5 9 11 12 13 15 16 18 19 20 20 20 20 20 18 19 18 20 18 18 14 14 14 13 14 15 15 14 14 14 13 14 14 12 13 13
6 1 5 5 6 4 6 10 8 11 13 12 14 17 19 20 21 22 21 20 20 20 19 19 18 15 13 12 11 12 9 12 15 13 13 14 15 15 15 14 14 14 14 14
6 3 3 7 4 7 4 11 11 14 16 18 18 19 20 22 23 22 21 20 18 17 14 12 12 13 14 14 16 14 11 12 12 14 15 15 14 13 12 14 14 13 14 14
3 5 3 5 7 6 10 12 14 14 16 17 20 21 21 23 22 20 14 14 15 16 19 20 21 21 22 19 18 15 15 14 14 14 13 13 13 9 13 12 12 20 20 19
Wind_Direction
197 257 237 48 28 340 303 289 317 311 344 283 289 297 265 268 254 192 196 187 183 188 187 179 187 188 194 185 186 188 165 172 186 170 231 213 210 191 201 214 200 201 228 211
189 244 29 41 293 289 294 276 287 5 27 266 259 288 324 42 18 275 209 188 188 186 181 182 191 173 201 191 184 183 191 190 210 197 224 204 207 193 202 199 194 216 218 135
236 194 67 256 258 246 271 318 5 328 296 245 258 229 168 115 128 130 201 177 184 184 189 192 192 180 194 188 191 193 193 188 197 209 218 234 250 135 213 180 209 208 169 180
220 263 112 256 247 273 294 27 330 309 294 356 213 216 139 142 108 102 144 175 175 196 204 192 195 194 194 178 190 193 197 191 196 205 215 197 208 205 209 224 200 191 216 200
215 231 238 242 260 7 298 3 295 293 277 267 207 97 278 163 105 103 101 86 190 194 196 201 204 191 203 184 175 187 188 195 207 200 234 201 219 208 183 207 193 206 232 215
269 211 270 247 266 264 282 281 258 234 250 263 103 256 289 345 76 57 120 148 25 282 217 186 184 195 194 184 177 162 175 188 196 195 204 236 212 242 211 204 191 211 211 197
216 241 225 235 262 247 230 254 253 232 216 143 96 302 131 96 82 53 33 47 60 52 128 183 172 182 190 202 202 185 168 190 187 195 209 217 231 237 227 210 210 245 197 213
208 200 213 214 230 263 241 275 280 253 273 93 132 106 19 68 83 57 61 86 71 76 89 78 124 186 176 210 202 223 203 189 199 208 219 221 228 227 229 207 237 223 225 197
192 153 90 242 256 244 234 247 357 312 203 241 70 134 207 107 86 67 59 82 65 72 73 71 67 111 161 200 202 211 233 204 206 218 220 220 223 235 257 261 201 234 245 253
311 171 193 145 210 231 272 336 258 318 347 287 155 291 89 85 39 53 53 38 118 80 61 68 52 42 61 178 190 202 205 211 218 219 212 221 215 226 236 243 233 254 250 257
264 257 152 181 216 211 194 234 241 285 318 316 290 107 78 55 45 6 337 97 12 79 106 114 106 89 45 51 41 306 181 237 219 216 211 227 223 219 224 237 231 251 246 239
234 287 241 219 81 319 296 306 297 272 245 256 314 320 76 60 53 37 336 100 70 345 104 139 100 82 87 56 33 43 348 6 309 300 211 212 200 219 238 245 240 259 264 251
295 240 254 239 198 201 241 248 252 281 298 282 274 264 138 135 88 359 354 341 57 123 48 193 127 90 21 102 42 6 15 14 317 278 242 233 253 208 234 243 242 246 271 261
312 269 278 295 212 256 250 227 251 280 286 302 303 318 182 30 31 49 346 319 303 67 90 13 95 85 57 25 43 19 33 14 24 336 51 41 308 308 253 255 242 249 248 266
246 271 276 301 300 259 286 292 290 271 276 275 297 305 318 1 39 25 331 291 313 35 25 19 23 31 63 59 35 31 28 26 24 21 300 266 316 291 280 284 284 279 350 318
255 274 283 284 290 288 262 276 286 280 278 279 288 287 26 62 91 79 40 327 326 87 193 195 239 263 271 136 316 352 1 360 3 352 8 347 340 345 353 343 303 105 43 277
284 287 291 277 282 293 280 270 289 293 292 308 295 347 50 244 131 9 259 259 289 258 253 287 303 275 307 293 266 243 331 320 327 321 316 314 321 316 324 325 315 176 196 268
279 273 278 277 279 268 268 51 327 304 307 297 312 323 44 344 340 273 202 275 289 291 302 293 288 298 291 306 326 330 299 288 283 284 282 288 291 298 308 299 295 295 217 224
285 274 270 272 262 277 271 110 344 350 324 358 325 344 288 288 308 276 266 215 297 302 296 287 282 294 303 295 287 281 277 275 278 271 274 271 270 272 278 279 281 280 288 272
306 267 260 251 267 283 63 67 16 5 280 34 349 334 329 335 285 65 26 320 301 297 296 294 294 293 290 290 290 288 284 274 267 266 267 267 268 264 260 266 267 273 264 271
229 258 242 241 255 244 54 13 333 271 33 350 350 334 317 301 308 310 307 306 302 299 295 292 289 284 281 280 279 280 278 273 278 279 273 269 263 263 257 257 254 257 261 264
260 262 263 224 280 265 21 290 337 13 323 340 324 315 311 305 301 299 299 298 298 297 295 292 288 284 283 280 276 276 274 274 276 276 278 273 265 262 264 258 246 240 244 248
259 341 339 337 33 116 342 340 359 330 315 314 313 309 307 304 303 300 297 295 294 294 291 291 290 288 285 278 281 280 275 269 267 268 269 270 270 266 260 257 255 254 248 246
163 9 272 333 73 359 341 320 317 323 311 302 306 310 306 300 300 301 298 295 294 292 291 291 292 289 292 292 283 278 273 273 268 258 260 266 262 256 255 256 249 240 245 255
45 186 348 278 288 357 289 354 335 329 322 315 305 299 298 299 299 300 298 303 301 296 295 302 303 298 294 278 264 259 262 263 260 260 261 262 261 262 259 245 252 254 254 258
100 26 287 358 19 341 327 329 316 305 304 312 309 304 307 314 315 318 323 326 319 308 301 303 303 297 294 287 288 286 280 271 268 267 268 261 262 251 253 256 254 228 236 260